LGAVLGMK

Guest
Details From LGAV - Athens Intl Airport Elefterios Venizel
To LGMK - Mikonos
Flight Number -
Tags generated
Created
Modified
Stats Distance 78 nm / 144 km
Max Altitude 3,300 ft / 1,006 m
Waypoints 3
Social Downloads 4
Likes 0
Share VATSIM

Download

Looking for another format? Having issues loading an existing format? Contact us
Advertisement - Login to hide

Notes

Basic altitude profile: - Ascent Rate: 2500ft/min - Ascent Speed: 250kts - Cruise Altitude: 12000ft - Cruise Speed: 420kts - Descent Rate: 1500ft/min - Descent Speed: 250kts Options: - Use NATs: yes - Use PACOTS: yes - Use low airways: no - Use high airways: yes

Route

LGAV VARIX LGMK

ID Type Via Altitude Latitude Longitude Leg Dist Tot Dist Heading (true) Name
O LGAV APT - 0 ft / 0 m 37.93636˚ 23.94447˚ - 0 nm - Athens Intl Airport Elefterios Venizel
VARIX FIX - 3,300 ft / 1,006 m 37.36389˚ 25.03417˚ 62 nm 62 nm 123° / 124° -
O LGMK APT - 0 ft / 0 m 37.43539˚ 25.34814˚ 15 nm 77 nm 74° / 74° Mikonos

Altitude Profile

Advertisement - Login to hide

LGAV

Details ICAO LGAV (ATH)
Name Athens Intl Airport Elefterios Venizel
Region Greece
Timezone Europe/Athens (UTC+2.0)
Stats Elevation 308 ft / 94 m (AMSL)
Location 37.936357° 23.944470°
Runways 2
Magnetic Variation 4.485° E

METAR

LGAV 181850Z 26005KT 9999 FEW030 10/05 Q1015 NOSIG

Decode

TAF

TAF TAF LGAV 181700Z 1818/1918 30010KT 9999 FEW018 BKN030 BECMG 1906/1908 01010KT

Decode

Departure Runways

ID Width Length Bearing (true) Bearing (mag) Surface Threshold Offset Overrun Length
03L 148 ft / 45 m 12,474 ft / 3,802 m 36.51° 32.02° Asphalt 984 ft / 300 m 393 ft / 120 m
03R 148 ft / 45 m 13,131 ft / 4,002 m 36.52° 32.03° Asphalt 984 ft / 300 m 393 ft / 120 m
21L 148 ft / 45 m 13,131 ft / 4,002 m 216.54° 212.05° Asphalt 984 ft / 300 m 393 ft / 120 m
21R 148 ft / 45 m 12,474 ft / 3,802 m 216.53° 212.04° Asphalt 984 ft / 300 m 393 ft / 120 m

LGMK

Details ICAO LGMK (JMK)
Name Mikonos
Region Greece
Timezone Europe/Athens (UTC+2.0)
Stats Elevation 405 ft / 123 m (AMSL)
Location 37.435385° 25.348138°
Runways 1
Magnetic Variation 4.602° E

METAR

LGMK 181750Z 21009G19KT 9999 FEW018TCU BKN020 13/10 Q1014

Decode

TAF

Not found

Destination Runways

ID Width Length Bearing (true) Bearing (mag) Surface Threshold Offset Overrun Length
16 98 ft / 30 m 6,423 ft / 1,958 m 160.63° 156.03° Asphalt 0 ft / 0 m 200 ft / 61 m
34 98 ft / 30 m 6,423 ft / 1,958 m 340.63° 336.03° Asphalt 0 ft / 0 m 200 ft / 61 m

Popular Alternatives